QPF
0.01 0.01 0.03 0.02 0.17 0.27 0.13 0.04 0.10 0.27 0.22 0.17 0.09 0.02 0.00 0.00 0.00 0.00 0.00 0.00 0.00 0.00 0.00 0.00 0.00 0.00 0.00 0.00 0.00 0.00 0.00 0.00 0.00 0.00 0.00 0.00 0.00 0.00 0.00 0.00 0.00 0.00 0.00 0.00
0.01 0.01 0.02 0.02 0.14 0.14 0.08 0.08 0.15 0.27 0.16 0.13 0.02 0.00 0.00 0.00 0.00 0.00 0.00 0.00 0.00 0.00 0.00 0.00 0.00 0.00 0.00 0.00 0.00 0.00 0.00 0.00 0.00 0.00 0.00 0.00 0.00 0.00 0.00 0.00 0.00 0.00 0.00 0.00
0.02 0.02 0.01 0.05 0.11 0.04 0.02 0.06 0.14 0.21 0.21 0.07 0.00 0.01 0.00 0.00 0.00 0.00 0.00 0.00 0.00 0.00 0.00 0.00 0.00 0.00 0.00 0.00 0.00 0.00 0.00 0.00 0.00 0.00 0.00 0.00 0.00 0.00 0.00 0.00 0.00 0.00 0.00 0.00
0.02 0.02 0.02 0.13 0.03 0.02 0.03 0.07 0.10 0.06 0.07 0.01 0.01 0.01 0.00 0.00 0.00 0.00 0.00 0.00 0.00 0.00 0.00 0.00 0.00 0.00 0.00 0.00 0.00 0.00 0.00 0.00 0.00 0.00 0.00 0.00 0.00 0.00 0.00 0.00 0.00 0.00 0.00 0.00
0.01 0.01 0.01 0.15 0.10 0.04 0.03 0.03 0.06 0.05 0.01 0.00 0.04 0.00 0.00 0.00 0.00 0.00 0.00 0.00 0.00 0.00 0.00 0.00 0.00 0.00 0.00 0.00 0.00 0.00 0.00 0.00 0.00 0.00 0.00 0.00 0.00 0.00 0.00 0.00 0.00 0.00 0.00 0.00
0.01 0.00 0.00 0.01 0.01 0.04 0.02 0.01 0.01 0.01 0.00 0.00 0.01 0.00 0.00 0.00 0.00 0.00 0.00 0.00 0.00 0.00 0.00 0.00 0.00 0.00 0.00 0.00 0.00 0.00 0.00 0.00 0.00 0.00 0.00 0.00 0.00 0.00 0.00 0.00 0.00 0.00 0.00 0.00
0.00 0.00 0.00 0.00 0.01 0.00 0.00 0.00 0.00 0.00 0.00 0.00 0.00 0.00 0.00 0.00 0.00 0.00 0.00 0.00 0.00 0.00 0.00 0.00 0.00 0.00 0.00 0.00 0.00 0.00 0.00 0.00 0.00 0.00 0.00 0.00 0.00 0.00 0.00 0.00 0.00 0.00 0.00 0.00
0.00 0.00 0.00 0.00 0.00 0.00 0.00 0.00 0.00 0.00 0.00 0.00 0.00 0.00 0.00 0.00 0.00 0.00 0.00 0.00 0.00 0.00 0.00 0.00 0.00 0.00 0.00 0.00 0.00 0.00 0.00 0.00 0.00 0.00 0.00 0.00 0.00 0.00 0.00 0.00 0.00 0.00 0.00 0.00
0.00 0.00 0.00 0.01 0.00 0.00 0.00 0.00 0.00 0.00 0.00 0.00 0.00 0.00 0.00 0.00 0.00 0.00 0.00 0.00 0.00 0.00 0.00 0.00 0.00 0.00 0.00 0.00 0.00 0.00 0.00 0.00 0.00 0.00 0.00 0.00 0.00 0.00 0.00 0.00 0.00 0.00 0.00 0.00
0.00 0.00 0.01 0.01 0.00 0.00 0.00 0.00 0.00 0.00 0.00 0.00 0.00 0.00 0.00 0.00 0.00 0.00 0.00 0.00 0.00 0.00 0.00 0.00 0.00 0.00 0.00 0.00 0.00 0.00 0.00 0.00 0.00 0.00 0.00 0.00 0.00 0.00 0.00 0.00 0.00 0.00 0.00 0.00
0.00 0.03 0.00 0.00 0.00 0.00 0.00 0.00 0.00 0.00 0.00 0.00 0.00 0.00 0.00 0.00 0.00 0.00 0.00 0.00 0.00 0.00 0.00 0.00 0.00 0.00 0.00 0.00 0.00 0.00 0.00 0.00 0.00 0.00 0.00 0.00 0.00 0.00 0.00 0.00 0.00 0.00 0.00 0.00
0.01 0.04 0.00 0.00 0.00 0.00 0.00 0.00 0.00 0.00 0.00 0.00 0.00 0.00 0.00 0.00 0.00 0.00 0.00 0.00 0.00 0.00 0.00 0.00 0.00 0.00 0.00 0.00 0.00 0.00 0.00 0.00 0.00 0.00 0.00 0.00 0.00 0.00 0.00 0.00 0.00 0.00 0.00 0.00
0.00 0.03 0.02 0.00 0.00 0.00 0.00 0.00 0.00 0.00 0.00 0.00 0.00 0.00 0.00 0.00 0.00 0.00 0.00 0.00 0.00 0.00 0.00 0.00 0.00 0.00 0.00 0.00 0.00 0.00 0.00 0.00 0.00 0.00 0.00 0.00 0.00 0.00 0.00 0.00 0.00 0.00 0.00 0.00
0.01 0.03 0.03 0.01 0.00 0.00 0.00 0.00 0.00 0.00 0.00 0.00 0.00 0.00 0.00 0.00 0.00 0.00 0.00 0.00 0.00 0.00 0.00 0.00 0.00 0.00 0.00 0.00 0.00 0.00 0.00 0.00 0.00 0.00 0.00 0.00 0.00 0.00 0.00 0.00 0.00 0.00 0.00 0.00
0.00 0.01 0.01 0.00 0.00 0.00 0.00 0.00 0.00 0.00 0.00 0.00 0.00 0.00 0.00 0.00 0.00 0.00 0.00 0.00 0.00 0.00 0.00 0.00 0.00 0.00 0.00 0.00 0.00 0.00 0.00 0.00 0.00 0.00 0.00 0.00 0.00 0.00 0.00 0.00 0.00 0.00 0.00 0.00
0.01 0.00 0.00 0.00 0.00 0.00 0.00 0.00 0.00 0.00 0.00 0.00 0.00 0.00 0.00 0.00 0.00 0.00 0.00 0.00 0.00 0.00 0.00 0.00 0.00 0.00 0.00 0.00 0.00 0.00 0.00 0.00 0.00 0.00 0.00 0.00 0.00 0.00 0.00 0.00 0.00 0.00 0.00 0.00
0.00 0.00 0.00 0.00 0.00 0.00 0.00 0.00 0.00 0.00 0.00 0.00 0.00 0.00 0.00 0.00 0.00 0.00 0.00 0.00 0.00 0.00 0.00 0.00 0.00 0.00 0.00 0.00 0.00 0.00 0.00 0.00 0.00 0.00 0.00 0.00 0.00 0.00 0.00 0.00 0.00 0.00 0.00 0.00
0.00 0.00 0.00 0.00 0.00 0.00 0.00 0.00 0.00 0.00 0.00 0.00 0.00 0.00 0.00 0.00 0.00 0.00 0.00 0.00 0.00 0.00 0.00 0.00 0.00 0.00 0.00 0.00 0.00 0.00 0.00 0.00 0.00 0.00 0.00 0.00 0.00 0.00 0.00 0.00 0.00 0.00 0.00 0.00
0.00 0.00 0.00 0.00 0.00 0.00 0.00 0.00 0.00 0.00 0.00 0.00 0.00 0.00 0.00 0.00 0.00 0.00 0.00 0.00 0.00 0.00 0.00 0.00 0.00 0.00 0.00 0.00 0.00 0.00 0.00 0.00 0.00 0.00 0.00 0.00 0.00 0.00 0.00 0.00 0.00 0.00 0.00 0.00
0.00 0.00 0.00 0.00 0.00 0.00 0.00 0.00 0.00 0.00 0.00 0.00 0.00 0.00 0.00 0.00 0.00 0.00 0.00 0.00 0.00 0.00 0.00 0.00 0.00 0.00 0.00 0.00 0.00 0.00 0.00 0.00 0.00 0.00 0.00 0.00 0.00 0.00 0.00 0.00 0.00 0.00 0.00 0.00
0.00 0.00 0.00 0.00 0.00 0.00 0.00 0.00 0.00 0.00 0.00 0.00 0.00 0.00 0.00 0.00 0.00 0.00 0.00 0.00 0.00 0.00 0.00 0.00 0.00 0.00 0.00 0.00 0.00 0.00 0.00 0.00 0.00 0.00 0.00 0.00 0.00 0.00 0.00 0.00 0.00 0.00 0.00 0.00
0.00 0.00 0.00 0.00 0.00 0.00 0.00 0.00 0.00 0.00 0.00 0.00 0.00 0.00 0.00 0.00 0.00 0.00 0.00 0.00 0.00 0.00 0.00 0.00 0.00 0.00 0.00 0.00 0.00 0.00 0.00 0.00 0.00 0.00 0.00 0.00 0.00 0.00 0.00 0.00 0.00 0.00 0.00 0.00
0.00 0.00 0.00 0.00 0.00 0.00 0.00 0.00 0.00 0.00 0.00 0.00 0.00 0.00 0.00 0.00 0.00 0.00 0.00 0.00 0.00 0.00 0.00 0.00 0.00 0.00 0.00 0.00 0.00 0.00 0.00 0.00 0.00 0.00 0.00 0.00 0.00 0.00 0.00 0.00 0.00 0.00 0.00 0.00
0.00 0.00 0.00 0.00 0.00 0.00 0.00 0.00 0.00 0.00 0.00 0.00 0.00 0.00 0.00 0.00 0.00 0.00 0.00 0.00 0.00 0.00 0.00 0.00 0.00 0.00 0.00 0.00 0.00 0.00 0.00 0.00 0.00 0.00 0.00 0.00 0.00 0.00 0.00 0.00 0.00 0.00 0.00 0.00
0.00 0.00 0.00 0.00 0.00 0.00 0.00 0.00 0.00 0.00 0.00 0.00 0.00 0.00 0.00 0.00 0.00 0.00 0.00 0.00 0.00 0.00 0.00 0.00 0.00 0.00 0.00 0.00 0.00 0.00 0.00 0.00 0.00 0.00 0.00 0.00 0.00 0.00 0.00 0.00 0.00 0.00 0.00 0.00
0.00 0.00 0.00 0.00 0.00 0.00 0.00 0.00 0.00 0.00 0.00 0.00 0.00 0.00 0.00 0.00 0.00 0.00 0.00 0.00 0.00 0.00 0.00 0.00 0.00 0.00 0.00 0.00 0.00 0.00 0.00 0.00 0.00 0.00 0.00 0.00 0.00 0.00 0.00 0.00 0.00 0.00 0.00 0.00
0.01 0.00 0.00 0.00 0.00 0.00 0.00 0.00 0.00 0.00 0.00 0.00 0.00 0.00 0.00 0.00 0.00 0.00 0.00 0.00 0.00 0.00 0.00 0.00 0.00 0.00 0.00 0.00 0.00 0.00 0.00 0.00 0.00 0.00 0.00 0.00 0.00 0.00 0.00 0.00 0.00 0.00 0.00 0.00
MSLP
1012.99 1012.10 1011.02 1010.13 1009.29 1009.31 1009.27 1009.56 1011.11 1012.91 1012.92 1013.49 1013.20 1012.58 1012.15 1011.84 1011.85 1011.62 1011.32 1010.95 1010.76 1010.46 1010.93 1011.44 1011.70 1012.14 1012.36 1012.24 1012.00 1011.46 1011.28 1010.92 1010.67 1010.71 1010.80 1010.74 1010.22 1009.29 1008.74 1008.10 1009.01 1009.34 1009.54 1012.06
1012.83 1012.00 1011.15 1010.22 1009.89 1009.92 1010.13 1010.95 1012.10 1013.12 1012.96 1012.97 1012.72 1012.48 1012.10 1011.71 1011.72 1011.58 1011.03 1010.77 1010.58 1010.63 1010.93 1011.25 1011.72 1011.94 1012.04 1011.99 1011.79 1011.57 1011.43 1011.28 1010.91 1010.60 1010.51 1010.21 1009.72 1009.77 1009.62 1009.34 1009.09 1009.63 1009.64 1011.76
1012.83 1012.11 1011.31 1010.60 1010.66 1010.53 1010.56 1011.38 1012.66 1013.71 1013.48 1012.96 1012.37 1012.57 1012.00 1011.76 1011.90 1011.53 1011.26 1010.97 1010.61 1010.63 1011.03 1011.37 1011.75 1011.81 1011.91 1011.92 1011.99 1011.96 1011.61 1011.78 1011.93 1011.52 1011.56 1011.16 1010.52 1010.47 1010.14 1009.61 1009.57 1009.85 1010.24 1011.53
1013.01 1012.50 1011.94 1011.62 1011.18 1010.90 1011.10 1012.05 1012.95 1013.31 1013.51 1013.13 1012.82 1012.80 1012.10 1011.83 1011.90 1011.70 1011.40 1011.09 1010.77 1010.68 1011.05 1011.40 1011.77 1012.09 1012.06 1012.07 1012.05 1011.87 1011.85 1012.31 1012.68 1012.58 1012.35 1011.79 1011.51 1011.29 1011.12 1010.83 1011.10 1010.70 1011.31 1011.62
1013.20 1012.83 1012.64 1012.16 1011.77 1011.63 1011.61 1012.46 1012.92 1013.24 1012.97 1013.11 1013.28 1012.71 1012.22 1012.11 1012.26 1011.89 1011.53 1011.52 1011.61 1011.18 1011.50 1011.80 1011.96 1012.08 1012.27 1012.35 1012.15 1012.29 1012.58 1012.98 1013.05 1012.58 1012.48 1012.20 1012.20 1012.24 1012.18 1012.00 1011.96 1012.06 1012.19 1012.72
1013.04 1012.73 1012.38 1012.00 1011.78 1011.87 1012.16 1012.81 1013.01 1012.73 1013.14 1013.13 1013.16 1012.91 1012.53 1012.31 1012.12 1012.47 1012.32 1011.86 1011.72 1012.02 1012.73 1012.43 1012.48 1012.36 1012.67 1012.75 1012.75 1012.75 1012.86 1013.06 1013.27 1013.21 1013.00 1012.41 1012.30 1013.12 1013.16 1013.00 1012.92 1012.81 1012.80 1013.41
1013.02 1012.59 1012.23 1011.83 1011.68 1011.80 1012.40 1013.05 1012.91 1012.44 1013.22 1013.31 1013.84 1013.29 1012.80 1012.78 1012.57 1012.67 1013.15 1012.74 1012.39 1013.65 1013.49 1013.32 1012.98 1012.93 1013.01 1013.06 1013.24 1013.27 1013.06 1013.23 1013.52 1013.53 1013.09 1013.02 1013.57 1013.67 1013.72 1013.47 1013.48 1013.80 1013.97 1014.36
1013.04 1012.39 1011.82 1011.56 1011.90 1011.97 1012.62 1013.45 1013.16 1012.59 1013.42 1014.20 1014.47 1014.11 1013.72 1013.58 1013.47 1013.65 1013.74 1013.82 1013.85 1013.77 1013.38 1013.11 1013.17 1013.18 1013.16 1013.55 1013.82 1013.54 1013.37 1013.38 1013.56 1013.35 1013.10 1013.83 1014.11 1014.33 1014.34 1014.18 1014.26 1014.31 1014.45 1014.99
1012.83 1012.09 1011.44 1011.97 1012.30 1012.29 1012.93 1013.87 1013.88 1013.16 1013.54 1015.99 1016.31 1015.27 1014.63 1014.24 1014.34 1014.61 1014.74 1014.55 1014.31 1013.95 1013.58 1013.40 1013.56 1013.83 1014.28 1014.20 1014.19 1014.13 1013.84 1013.53 1013.03 1013.29 1013.23 1013.45 1014.15 1014.74 1015.04 1015.13 1014.76 1015.02 1015.37 1015.62
1013.02 1012.38 1012.38 1012.74 1012.75 1012.80 1013.24 1014.31 1014.52 1013.96 1014.95 1017.04 1016.97 1016.38 1015.96 1015.45 1015.14 1015.17 1015.33 1014.83 1014.36 1014.24 1013.85 1013.88 1014.22 1014.64 1015.15 1014.68 1014.49 1014.38 1013.95 1013.79 1013.68 1013.73 1013.65 1013.92 1014.51 1015.02 1015.42 1015.49 1015.71 1015.54 1015.91 1016.12
1013.52 1013.37 1013.30 1013.40 1013.46 1013.55 1013.77 1014.95 1014.90 1014.52 1015.81 1017.65 1017.72 1017.45 1016.96 1016.36 1016.02 1015.47 1015.77 1015.43 1014.79 1014.63 1014.49 1014.53 1014.87 1014.94 1015.51 1015.42 1015.41 1015.12 1014.72 1014.40 1014.29 1014.43 1014.25 1014.40 1014.88 1015.45 1015.50 1015.44 1015.71 1015.93 1016.41 1016.69
1013.89 1013.84 1013.86 1014.00 1014.17 1014.11 1014.17 1014.73 1015.21 1015.12 1015.46 1017.83 1018.23 1018.23 1018.16 1018.06 1017.57 1016.86 1016.39 1015.98 1015.61 1015.40 1015.08 1015.25 1015.42 1015.52 1015.83 1015.73 1015.32 1015.80 1015.50 1015.04 1014.75 1014.80 1014.41 1014.77 1015.24 1015.49 1015.76 1016.00 1016.00 1016.54 1016.70 1016.97
1014.13 1014.25 1014.29 1014.48 1014.49 1014.43 1014.37 1015.22 1015.53 1015.53 1016.49 1017.79 1017.80 1018.03 1018.16 1018.20 1017.96 1017.74 1017.05 1016.52 1016.13 1015.96 1016.02 1015.60 1015.89 1016.00 1016.19 1015.78 1015.62 1015.60 1015.58 1015.73 1015.39 1015.21 1014.73 1014.97 1015.42 1015.98 1016.36 1016.60 1016.77 1016.98 1017.31 1017.48
1014.09 1014.36 1014.52 1014.69 1014.85 1014.97 1014.88 1015.63 1016.01 1015.75 1016.15 1016.90 1018.15 1018.02 1018.02 1017.92 1017.55 1017.36 1017.03 1016.58 1016.51 1016.29 1016.26 1016.09 1016.24 1016.42 1016.87 1016.39 1016.25 1015.87 1015.78 1015.85 1015.29 1015.01 1014.84 1015.42 1015.53 1015.99 1016.35 1016.84 1017.30 1017.66 1017.98 1018.32
1014.32 1014.52 1014.73 1014.99 1015.26 1015.44 1015.67 1016.22 1016.37 1016.17 1016.37 1017.14 1018.06 1018.22 1018.18 1017.98 1017.58 1017.26 1017.04 1016.84 1016.72 1016.67 1016.70 1016.72 1016.95 1017.40 1017.54 1017.31 1016.88 1015.57 1015.22 1014.71 1014.89 1014.41 1014.83 1015.31 1015.67 1016.20 1016.53 1017.09 1017.62 1018.03 1018.25 1018.48
1014.72 1014.72 1015.06 1015.35 1015.54 1015.70 1016.01 1016.37 1016.49 1016.40 1016.25 1016.64 1018.17 1018.66 1018.40 1018.16 1017.94 1017.70 1017.59 1017.54 1017.42 1017.35 1017.14 1017.65 1017.96 1018.27 1018.11 1017.18 1016.10 1014.33 1014.51 1014.88 1015.14 1015.36 1015.88 1016.25 1016.70 1016.92 1017.25 1017.55 1017.89 1018.14 1018.42 1018.65
1014.86 1014.78 1015.08 1015.44 1015.72 1015.98 1016.60 1017.01 1017.03 1016.74 1016.58 1016.79 1018.25 1018.58 1018.69 1018.64 1018.27 1018.22 1018.05 1018.01 1017.95 1017.80 1018.04 1018.16 1018.21 1018.44 1018.23 1017.28 1015.57 1014.32 1014.89 1015.41 1015.89 1016.24 1016.54 1016.90 1017.15 1017.31 1017.67 1017.90 1018.22 1018.47 1018.72 1018.91
1014.81 1015.04 1015.32 1015.75 1016.05 1016.51 1016.71 1016.97 1016.82 1016.90 1016.89 1017.13 1018.03 1018.75 1018.96 1018.82 1018.45 1018.45 1018.66 1018.17 1018.16 1018.45 1018.58 1018.82 1018.50 1018.69 1018.31 1016.60 1014.67 1015.05 1015.47 1015.90 1016.33 1016.73 1017.08 1017.26 1017.59 1017.77 1018.01 1018.34 1018.58 1018.69 1018.87 1018.99
1015.22 1015.60 1015.61 1016.04 1016.37 1016.84 1017.10 1017.03 1017.00 1017.10 1017.31 1017.43 1018.05 1018.30 1018.69 1018.91 1018.92 1018.79 1018.72 1018.54 1018.38 1019.04 1018.70 1018.89 1019.01 1018.13 1016.99 1014.96 1014.93 1015.24 1015.64 1015.88 1016.20 1016.99 1017.37 1017.63 1017.76 1017.97 1018.19 1018.43 1018.67 1018.86 1018.87 1018.84
1015.66 1016.01 1016.44 1017.00 1017.46 1017.42 1017.04 1017.13 1017.09 1017.06 1017.39 1017.66 1017.74 1018.44 1018.79 1018.97 1019.07 1019.00 1018.96 1018.94 1018.89 1018.86 1019.11 1019.15 1018.67 1016.79 1015.21 1015.17 1015.10 1015.31 1015.65 1016.18 1016.60 1017.07 1017.52 1017.71 1017.89 1018.07 1018.23 1018.49 1018.75 1018.83 1018.79 1018.89
1016.05 1016.81 1017.49 1017.87 1017.75 1017.52 1017.56 1017.50 1017.61 1017.64 1017.66 1017.57 1018.03 1018.21 1018.48 1019.09 1018.85 1018.86 1019.12 1019.04 1019.30 1019.11 1019.17 1018.95 1017.90 1016.24 1014.87 1015.06 1015.26 1015.57 1015.89 1016.29 1016.68 1016.93 1017.16 1017.47 1017.75 1018.08 1018.40 1018.56 1018.65 1018.76 1018.79 1018.58
1016.23 1017.14 1017.78 1017.96 1018.09 1018.27 1018.20 1017.82 1018.01 1017.77 1017.00 1017.66 1017.94 1018.18 1018.35 1018.97 1018.98 1018.81 1019.41 1019.19 1019.51 1019.08 1019.16 1018.79 1017.02 1014.71 1014.62 1015.11 1015.58 1016.00 1016.25 1016.63 1016.96 1017.23 1017.53 1017.91 1018.16 1018.39 1018.58 1018.65 1018.67 1018.68 1018.58 1018.54
1016.31 1017.13 1018.29 1018.70 1018.79 1018.60 1017.97 1017.32 1017.03 1016.89 1016.51 1017.16 1017.74 1018.24 1018.28 1019.04 1018.99 1019.08 1019.24 1019.28 1019.19 1019.18 1018.84 1017.24 1014.93 1014.30 1014.72 1015.20 1015.62 1016.21 1016.74 1017.06 1017.27 1017.52 1017.85 1018.20 1018.40 1018.59 1018.73 1018.72 1018.76 1018.77 1018.58 1018.24
1016.92 1018.13 1018.94 1018.69 1018.15 1017.31 1016.04 1015.80 1015.47 1015.48 1015.59 1016.55 1017.28 1017.96 1018.18 1018.26 1018.48 1018.83 1018.96 1019.20 1019.10 1018.94 1017.92 1015.24 1013.78 1013.75 1014.44 1015.29 1015.76 1016.20 1016.76 1017.20 1017.57 1017.79 1018.14 1018.41 1018.63 1018.74 1018.79 1018.85 1018.88 1018.77 1018.42 1018.07
1017.11 1017.56 1018.30 1017.79 1017.12 1017.02 1016.73 1016.47 1016.36 1016.11 1015.84 1016.25 1017.40 1017.88 1018.08 1018.19 1018.28 1018.28 1018.76 1019.11 1018.23 1017.15 1014.88 1013.60 1013.34 1013.80 1014.44 1015.25 1015.76 1016.09 1016.55 1017.12 1017.55 1017.92 1018.26 1018.55 1018.70 1018.78 1018.75 1018.76 1018.86 1018.68 1018.38 1018.11
1017.24 1017.35 1016.70 1016.64 1017.10 1017.18 1017.34 1017.16 1016.71 1016.51 1016.10 1016.57 1016.83 1017.60 1017.91 1017.58 1017.38 1017.71 1017.09 1016.95 1015.44 1013.75 1013.54 1013.26 1013.65 1014.18 1014.74 1015.26 1015.68 1016.09 1016.59 1017.13 1017.55 1017.96 1018.24 1018.50 1018.72 1018.85 1018.95 1018.81 1018.68 1018.59 1018.44 1018.09
1016.10 1016.06 1016.07 1015.62 1015.80 1016.39 1016.76 1016.96 1016.72 1016.65 1016.42 1016.15 1016.39 1016.98 1016.71 1017.27 1016.90 1016.23 1015.71 1014.48 1012.94 1012.74 1013.30 1013.65 1014.07 1014.45 1014.98 1015.50 1015.93 1016.38 1016.85 1017.31 1017.71 1018.03 1018.27 1018.57 1018.84 1019.18 1019.03 1018.79 1018.58 1018.55 1018.25 1017.96
Thickness
5396 5402 5409 5416 5421 5422 5430 5432 5428 5416 5427 5431 5441 5462 5467 5477 5482 5489 5498 5507 5511 5519 5517 5515 5516 5514 5509 5515 5519 5525 5529 5537 5534 5537 5538 5537 5542 5555 5562 5576 5557 5555 5572 5547
5402 5409 5416 5424 5425 5427 5431 5431 5429 5425 5435 5445 5451 5461 5472 5481 5487 5494 5505 5510 5515 5519 5519 5520 5519 5518 5520 5520 5521 5528 5533 5536 5540 5544 5550 5551 5557 5554 5554 5559 5565 5556 5575 5556
5409 5416 5424 5428 5429 5434 5439 5439 5435 5426 5433 5447 5463 5460 5478 5483 5486 5497 5504 5510 5519 5524 5522 5523 5521 5524 5524 5525 5525 5523 5532 5531 5531 5547 5536 5543 5553 5552 5556 5564 5568 5568 5567 5552
5415 5420 5428 5433 5438 5442 5445 5438 5436 5438 5443 5448 5455 5460 5482 5489 5495 5501 5509 5517 5524 5529 5526 5526 5525 5524 5527 5530 5528 5534 5539 5528 5520 5530 5531 5538 5543 5546 5551 5551 5551 5562 5556 5559
5423 5430 5434 5442 5446 5448 5450 5445 5446 5445 5457 5456 5449 5470 5486 5491 5493 5504 5514 5516 5518 5531 5530 5530 5528 5530 5531 5530 5537 5534 5533 5527 5527 5533 5537 5541 5539 5542 5545 5547 5547 5548 5551 5546
5439 5444 5449 5454 5457 5457 5456 5451 5451 5463 5458 5463 5462 5476 5489 5495 5502 5502 5508 5521 5528 5528 5520 5526 5527 5531 5528 5529 5534 5533 5533 5531 5531 5533 5532 5543 5552 5536 5539 5541 5541 5546 5554 5543
5455 5458 5462 5467 5470 5469 5465 5460 5465 5478 5465 5477 5465 5480 5493 5496 5500 5509 5503 5516 5527 5512 5514 5519 5528 5530 5530 5531 5529 5529 5534 5531 5524 5532 5537 5545 5535 5531 5530 5539 5539 5536 5536 5532
5468 5473 5478 5480 5479 5478 5473 5467 5475 5486 5476 5477 5478 5484 5487 5495 5498 5498 5500 5504 5509 5513 5522 5529 5529 5530 5533 5528 5524 5529 5532 5533 5527 5538 5541 5532 5526 5526 5531 5535 5538 5530 5532 5523
5483 5489 5493 5488 5485 5485 5481 5473 5474 5489 5498 5469 5452 5483 5495 5504 5502 5501 5498 5503 5507 5515 5524 5528 5524 5527 5519 5527 5529 5526 5530 5534 5543 5536 5538 5545 5532 5522 5519 5520 5537 5519 5517 5516
5494 5497 5496 5491 5491 5490 5488 5480 5479 5491 5483 5459 5462 5487 5492 5490 5500 5504 5501 5508 5518 5516 5526 5526 5525 5522 5509 5528 5528 5527 5532 5532 5533 5533 5537 5538 5526 5520 5516 5531 5533 5514 5511 5512
5499 5499 5497 5495 5494 5494 5493 5484 5486 5495 5483 5466 5467 5470 5485 5497 5503 5520 5508 5516 5520 5523 5525 5526 5520 5526 5516 5521 5515 5524 5530 5534 5532 5526 5531 5536 5521 5518 5530 5527 5509 5511 5503 5501
5504 5503 5501 5499 5497 5497 5498 5497 5492 5494 5497 5478 5474 5475 5478 5480 5486 5504 5503 5515 5515 5519 5527 5521 5518 5522 5512 5520 5536 5508 5528 5531 5536 5533 5540 5522 5515 5518 5510 5507 5512 5499 5498 5492
5509 5508 5506 5504 5504 5504 5505 5500 5499 5501 5496 5488 5491 5489 5488 5488 5490 5493 5520 5512 5512 5514 5510 5524 5521 5527 5518 5533 5532 5523 5517 5508 5524 5523 5524 5519 5513 5505 5500 5497 5495 5490 5484 5480
5516 5513 5511 5509 5507 5507 5508 5504 5501 5507 5508 5513 5495 5491 5494 5495 5499 5500 5503 5509 5508 5511 5514 5523 5526 5530 5503 5523 5517 5521 5522 5509 5521 5523 5523 5509 5510 5502 5498 5489 5481 5475 5468 5462
5519 5517 5514 5512 5511 5510 5509 5504 5504 5506 5514 5510 5499 5494 5496 5498 5502 5506 5508 5512 5514 5517 5522 5523 5524 5503 5503 5493 5497 5517 5515 5530 5530 5538 5521 5517 5509 5494 5489 5481 5472 5465 5459 5453
5518 5518 5515 5513 5513 5513 5510 5515 5508 5508 5511 5514 5510 5493 5497 5499 5502 5504 5504 5503 5504 5508 5515 5504 5495 5487 5498 5512 5523 5536 5520 5512 5510 5519 5496 5493 5483 5478 5473 5470 5462 5455 5448 5442
5517 5519 5517 5514 5513 5513 5512 5512 5507 5508 5511 5514 5502 5501 5496 5494 5499 5499 5502 5499 5499 5506 5498 5499 5498 5492 5490 5502 5525 5530 5511 5504 5495 5490 5486 5485 5475 5475 5463 5458 5451 5444 5436 5429
5515 5515 5514 5512 5510 5509 5510 5506 5508 5508 5510 5509 5498 5498 5498 5493 5502 5506 5492 5503 5501 5493 5492 5487 5495 5484 5484 5505 5525 5507 5498 5493 5487 5480 5474 5471 5463 5458 5452 5445 5438 5433 5426 5417
5508 5506 5508 5507 5506 5508 5506 5505 5506 5506 5509 5510 5502 5513 5514 5492 5491 5493 5496 5494 5508 5485 5496 5491 5483 5494 5502 5525 5516 5501 5494 5493 5488 5472 5465 5459 5457 5450 5443 5436 5429 5421 5415 5406
5500 5498 5497 5496 5494 5495 5500 5501 5507 5504 5500 5499 5510 5490 5502 5494 5490 5491 5495 5486 5494 5499 5491 5477 5485 5505 5512 5504 5502 5497 5491 5483 5474 5465 5457 5450 5444 5441 5435 5427 5416 5408 5401 5391
5488 5486 5485 5482 5483 5488 5489 5495 5500 5500 5506 5499 5491 5494 5496 5486 5498 5497 5485 5484 5475 5494 5486 5486 5494 5505 5510 5496 5492 5487 5484 5476 5469 5463 5457 5449 5441 5433 5423 5415 5406 5397 5388 5382
5481 5475 5473 5475 5475 5474 5481 5480 5480 5487 5514 5488 5493 5491 5492 5484 5481 5490 5476 5483 5470 5492 5468 5473 5494 5515 5502 5492 5485 5477 5473 5467 5459 5452 5445 5435 5428 5419 5409 5402 5394 5385 5376 5365
5470 5467 5460 5461 5463 5468 5478 5488 5491 5484 5490 5485 5483 5486 5484 5476 5478 5475 5474 5475 5481 5466 5467 5490 5510 5504 5493 5486 5479 5468 5460 5455 5449 5442 5434 5425 5416 5406 5397 5390 5381 5371 5362 5354
5452 5444 5443 5454 5460 5471 5493 5501 5502 5494 5492 5483 5482 5475 5483 5478 5479 5471 5474 5469 5468 5454 5462 5504 5514 5501 5494 5479 5472 5464 5455 5446 5436 5430 5421 5411 5401 5393 5384 5376 5368 5359 5352 5342
5439 5437 5441 5449 5459 5454 5459 5460 5469 5472 5481 5478 5470 5467 5471 5468 5465 5471 5463 5452 5456 5476 5511 5515 5502 5492 5484 5474 5465 5460 5452 5441 5432 5422 5410 5398 5389 5381 5375 5366 5355 5345 5336 5323
5420 5419 5435 5443 5445 5446 5446 5449 5457 5458 5469 5463 5466 5458 5458 5469 5469 5459 5466 5476 5495 5517 5492 5497 5488 5482 5474 5467 5459 5452 5443 5434 5425 5415 5405 5396 5386 5376 5365 5353 5345 5333 5320 5306
5431 5431 5428 5443 5446 5446 5447 5445 5450 5450 5462 5470 5460 5457 5476 5445 5455 5463 5474 5492 5513 5499 5486 5479 5478 5474 5465 5457 5450 5441 5432 5424 5415 5405 5397 5385 5372 5358 5351 5345 5335 5319 5307 5291